This is the latest recevied weather packets stored in our database for station/object KK6MIG-13. If no packets are shown the sender has not sent any weather packets the latest 10 day(s).
| Time | Temp. | Humidity | Pressure | Rain* | Wind** | Luminosity | Snow |
|---|---|---|---|---|---|---|---|
| 1777311360 | 13.33° C | 42% | 1015.9 hPa | 0 mm | - | 779 W/m² | - |
| 1777311294 | 13.33° C | 42% | 1016 hPa | 0 mm | - | 541 W/m² | - |
| 1777311234 | 13.33° C | 41% | 1015.9 hPa | 0 mm | - | 541 W/m² | - |
| 1777311174 | 13.33° C | 40% | 1015.9 hPa | 0 mm | - | 541 W/m² | - |
| 1777311113 | 13.33° C | 41% | 1015.9 hPa | 0 mm | - | 541 W/m² | - |
| 1777311053 | 13.33° C | 40% | 1015.9 hPa | 0 mm | - | 541 W/m² | - |
| 1777310990 | 13.33° C | 39% | 1016 hPa | 0 mm | - | 849 W/m² | - |
| 1777310930 | 13.33° C | 38% | 1015.9 hPa | 0 mm | - | 849 W/m² | - |
| 1777310870 | 13.33° C | 38% | 1015.9 hPa | 0 mm | - | 849 W/m² | - |
| 1777310809 | 13.33° C | 41% | 1015.9 hPa | 0 mm | - | 830 W/m² | - |
| 1777310747 | 13.33° C | 43% | 1015.9 hPa | 0 mm | - | 814 W/m² | - |
| 1777310681 | 13.33° C | 44% | 1015.9 hPa | 0 mm | - | 810 W/m² | - |
| 1777310621 | 13.33° C | 44% | 1015.9 hPa | 0 mm | - | 232 W/m² | - |
| 1777310562 | 13.33° C | 43% | 1015.9 hPa | 0 mm | - | 232 W/m² | - |
| 1777310502 | 13.33° C | 44% | 1015.9 hPa | 0 mm | - | 232 W/m² | - |
| 1777310441 | 13.33° C | 42% | 1015.9 hPa | 0 mm | - | 232 W/m² | - |
| 1777310375 | 13.33° C | 44% | 1015.9 hPa | 0 mm | - | 798 W/m² | - |
| 1777310316 | 13.33° C | 45% | 1015.8 hPa | 0 mm | - | 759 W/m² | - |
| 1777310256 | 13.33° C | 46% | 1015.9 hPa | 0 mm | - | 745 W/m² | - |
| 1777310196 | 13.33° C | 46% | 1015.9 hPa | 0 mm | - | 731 W/m² | - |
| 1777310135 | 13.33° C | 45% | 1015.8 hPa | 0 mm | - | 735 W/m² | - |
| 1777310078 | 13.33° C | 43% | 1015.8 hPa | 0 mm | - | 726 W/m² | - |
| 1777310073 | 13.33° C | 44% | 1015.8 hPa | 0 mm | - | 726 W/m² | - |
| 1777309949 | 13.33° C | 43% | 1015.8 hPa | 0 mm | - | 738 W/m² | - |
| 1777309889 | 13.33° C | 44% | 1015.8 hPa | 0 mm | - | 714 W/m² | - |
* Rain latest hour (hover to see other rain measurements)
** Current wind speed in m/s (hover to see current wind gust speed)